Weather in Bellinzona

Switzerland     46°11′36″N   9°01′10″E
temp.,
°C
wind,
m/s
gust,
m/s
humid.,
%
clouds,
%
prec.,
mm/h
press.,
hPa
HPBL,
m
21 april, wed
wed2123:00+1nne338618 0.1 101841
02:000nne228765 0.1 101929
05:00+1ne118884 0.1 101822
08:00+3se118360 0.2 1018136
11:00+7ssw2271100 0.3 1017984
14:00+8s3366100 1.4 10161225
17:00+7ssw226875 0.7 1016926
20:00+4sse1179100 0.8 101710
22 april, thu
thu2223:00+1nne228817 0.0 102017
02:00+1nne228778 0.0 102018
05:00+1nne228425 0.0 102015
08:00+4nne12704 0.0 102090
11:00+10ssw22476 0.0 10171322
14:00+13sw224096 0.0 10162001
17:00+12wsw124665 0.5 10151645
20:00+7nnw237539 0.9 101753
23 april, fri
fri2323:00+3nne34845 0.0 102175
02:00+2nne34822 0.0 102263
05:00+1nne34822 0.0 102362
08:00+4nne24670 0.0 1022146
11:00+12se02320 0.0 10201368
14:00+14sw13283 0.0 10192259
17:00+14wsw13324 0.0 10181866
20:00+7sw11752 0.0 102115
24 april, sat
sat2423:00+4nne227145 0.0 102524
02:00+4n115958 0.0 102534
05:00+2nne22684 0.0 102523
08:00+5nne11646 0.0 1024115
11:00+11ssw22505 0.0 10211230
14:00+14ssw33418 0.0 10191685
17:00+14ssw43455 0.0 10181330
20:00+8ssw1183100 0.0 102017
25 april, sun
sun2523:00+6n2180100 0.0 102216
02:00+5nne227116 0.0 102217
05:00+3nne226988 0.0 102219
08:00+6ne015598 0.0 102172
11:00+12ssw21425 0.0 1018977
14:00+15ssw334025 0.0 10171655
17:00+14ssw325360 0.0 10161145
20:00+8s2283100 0.0 101750